Regional Weather Roundup
Issued by NWS

Home | Current Version | Previous Version | Text Only | Print | Product List | Glossary On
Versions: 1 2 3 4 5 6 7 8 9 10 11 12 13 14 15 16 17 18 19 20 21 22 23 24 25 26 27 28 29 30 31 32 33 34 35 36 37 38 39 40 41 42 43 44 45 46 47 48 49 50
000
ASUS45 KCYS 262010
RWRWY

WYOMING REGIONAL WEATHER ROUNDUP
NATIONAL WEATHER SERVICE CHEYENNE WY
200 PM MDT WED APR 26 2017

NOTE:  "FAIR" INDICATES FEW OR NO CLOUDS BELOW 12,000 FEET
WITH NO SIGNIFICANT WEATHER AND/OR OBSTRUCTIONS TO VISIBILITY.

WYZ001-262100-
YELLOWSTONE NATIONAL PARK

CITY           SKY/WX    TMP DP  RH WIND       PRES   REMARKS
LK YELLOWSTONE   N/A     35  27  72 VRB7      29.75F WCI  29
W YELLOWSTONE  NOT AVBL

$$
WYZ002>013-054>058-071-098>099-262100-
NORTHERN WYOMING

CITY           SKY/WX    TMP DP  RH WIND       PRES   REMARKS
JACKSON        FLURRIES  37  30  75 SW8       29.78F WCI  31
CODY           FAIR      48  35  60 NE8       29.68F
GREYBULL       PTSUNNY   55  27  34 S8        29.65F
WORLAND        FAIR      54  35  48 NW5       29.66F
SHERIDAN       CLOUDY    36  28  73 CALM      29.75F
BUFFALO        CLOUDY    37  29  72 CALM      29.72F
GILLETTE       FAIR      40  35  83 VRB3      29.73S
HULETT         CLOUDY    36  30  80 CALM      29.75F
NEWCASTLE      FAIR      43  32  65 CALM      29.74F

$$
WYZ014>020-022>026-101>103-262100-
CENTRAL WYOMING

CITY           SKY/WX    TMP DP  RH WIND       PRES   REMARKS
BIG PINEY      CLOUDY    46  24  42 W13       29.76F
PINEDALE       FLURRIES  37  32  81 NW13      29.77F WCI  29
DUBOIS         MOCLDY    43  27  52 W16G22    29.70F
LANDER         CLOUDY    54  24  31 N6        29.65F
RIVERTON       CLOUDY    51  24  34 E5        29.68F
CASPER         FAIR      51  29  42 SW9       29.68F
DOUGLAS        CLOUDY    50  31  48 N22G32    29.70F

$$
WYZ021-027>030-104>119-262100-
SOUTHERN WYOMING

CITY           SKY/WX    TMP DP  RH WIND       PRES   REMARKS
EVANSTON       PTSUNNY   45  31  58 SW22G31   29.83F
KEMMERER         N/A     41  30  65 W20G26    29.81F
FORT BRIDGER   CLOUDY    45  30  57 W23G29    29.85F
ROCK SPRINGS   CLOUDY    46  30  53 W23G32    29.78F
DIXON          LGT RAIN  40  35  79 SW8       29.83F
RAWLINS        LGT SNOW  35  31  85 W10G23    29.78F FOG     WCI  27
SARATOGA       CLOUDY    37  36  93 W24G32    29.81S WCI  26
LARAMIE        PTSUNNY   44  22  41 W23       29.74F
CHEYENNE       FAIR      50  18  28 NW16G26   29.71F
TORRINGTON     PTSUNNY   54  29  38 CALM      29.68F
PINE BLUFFS    CLOUDY    50  32  50 CALM      29.71F

$$



USA.gov is the U.S. government's official web portal to all federal, state and local government web resources and services.